| time (UTC) | temp F | wind direction | speed MPH | gust MPH | rain 1hr in | rain 24hr in | rain mn in | humidity % | barometer mb |
| 20260903224526 | 64 | 158 | 3.0 | 8.0 | 0.00 | 0.00 | 0.00 | 63 | 1009.5 |
| 20260903223016 | 65 | 200 | 3.0 | 7.0 | 0.00 | 0.00 | 0.00 | 61 | 1009.7 |
| 20260903221515 | 65 | 236 | 3.0 | 11.0 | 0.00 | 0.00 | 0.00 | 61 | 1009.9 |
| 20260903220059 | 66 | 205 | 3.0 | 8.0 | 0.00 | 0.00 | 0.00 | 60 | 1010.0 |
| 20260903214547 | 67 | 295 | 1.0 | 7.0 | 0.00 | 0.00 | 0.00 | 54 | 1010.1 |
| 20260903213025 | 68 | 222 | 3.0 | 9.0 | 0.00 | 0.00 | 0.00 | 50 | 1010.5 |
| 20260903211520 | 69 | 203 | 2.0 | 9.0 | 0.00 | 0.00 | 0.00 | 44 | 1010.5 |
| 20260903204556 | 70 | 179 | 3.0 | 7.0 | 0.00 | 0.00 | 0.00 | 37 | 1010.7 |
| 20260903203033 | 69 | 196 | 2.0 | 6.0 | 0.00 | 0.00 | 0.00 | 38 | 1010.8 |
| 20260903201534 | 69 | 198 | 2.0 | 6.0 | 0.00 | 0.00 | 0.00 | 35 | 1011.0 |
| 20260903200007 | 68 | 148 | 4.0 | 7.0 | 0.00 | 0.00 | 0.00 | 35 | 1011.1 |
| 20260903194502 | 68 | 195 | 3.0 | 10.0 | 0.00 | 0.00 | 0.00 | 35 | 1011.1 |
| 20260903193041 | 68 | 188 | 3.0 | 9.0 | 0.00 | 0.00 | 0.00 | 35 | 1011.3 |
| 20260903191536 | 67 | 224 | 3.0 | 9.0 | 0.00 | 0.00 | 0.00 | 35 | 1011.4 |
| 20260903190024 | 67 | 211 | 2.0 | 6.0 | 0.00 | 0.00 | 0.00 | 33 | 1011.7 |
| 20260903184516 | 67 | 179 | 1.0 | 11.0 | 0.00 | 0.00 | 0.00 | 32 | 1011.9 |
| 20260903183012 | 66 | 229 | 0.0 | 6.0 | 0.00 | 0.00 | 0.00 | 32 | 1012.1 |
| 20260903181507 | 65 | 165 | 2.0 | 5.0 | 0.00 | 0.00 | 0.00 | 31 | 1012.3 |
| 20260903180011 | 66 | 150 | 2.0 | 6.0 | 0.00 | 0.00 | 0.00 | 27 | 1012.2 |
| 20260903174559 | 65 | 184 | 1.0 | 6.0 | 0.00 | 0.00 | 0.00 | 25 | 1012.3 |
| 20260903173102 | 66 | 274 | 1.0 | 5.0 | 0.00 | 0.00 | 0.00 | 19 | 1012.1 |
| 20260903171550 | 65 | 198 | 2.0 | 5.0 | 0.00 | 0.00 | 0.00 | 18 | 1012.1 |
| 20260903170041 | 65 | 258 | 1.0 | 3.0 | 0.00 | 0.00 | 0.00 | 19 | 1011.9 |
| 20260903164530 | 65 | 246 | 0.0 | 2.0 | 0.00 | 0.00 | 0.00 | 16 | 1011.9 |
| 20260903163008 | 64 | 274 | 2.0 | 8.0 | 0.00 | 0.00 | 0.00 | 13 | 1011.7 |
| 20260903161611 | 62 | 303 | 0.0 | 2.0 | 0.00 | 0.00 | 0.00 | 21 | 1011.7 |
| 20260903160042 | 61 | 217 | 0.0 | 2.0 | 0.00 | 0.00 | 0.00 | 31 | 1011.6 |
| 20260903154531 | 60 | 221 | 0.0 | 2.0 | 0.00 | 0.00 | 0.00 | 32 | 1011.6 |
| 20260903153009 | 59 | 346 | 0.0 | 1.0 | 0.00 | 0.00 | 0.00 | 32 | 1011.6 |
| 20260903151505 | 58 | 303 | 0.0 | 1.0 | 0.00 | 0.00 | 0.00 | 33 | 1011.6 |
| 20260903150045 | 58 | 298 | 0.0 | 3.0 | 0.00 | 0.00 | 0.00 | 33 | 1011.5 |
| 20260903144539 | 57 | 307 | 0.0 | 2.0 | 0.00 | 0.00 | 0.00 | 34 | 1011.4 |
| 20260903143017 | 57 | 300 | 0.0 | 2.0 | 0.00 | 0.00 | 0.00 | 32 | 1011.2 |
| 20260903141518 | 57 | 302 | 0.0 | 2.0 | 0.00 | 0.00 | 0.00 | 26 | 1011.1 |
| 20260903140101 | 56 | 298 | 1.0 | 3.0 | 0.00 | 0.00 | 0.00 | 29 | 1010.8 |
| 20260903134554 | 56 | 294 | 0.0 | 2.0 | 0.00 | 0.00 | 0.00 | 33 | 1010.7 |
| 20260903133049 | 56 | 294 | 0.0 | 1.0 | 0.00 | 0.00 | 0.00 | 34 | 1010.6 |
| 20260903131543 | 56 | 288 | 0.0 | 2.0 | 0.00 | 0.00 | 0.00 | 30 | 1010.4 |
| 20260903130039 | 57 | 290 | 0.0 | 3.0 | 0.00 | 0.00 | 0.00 | 29 | 1010.3 |
| 20260903124534 | 57 | 295 | 1.0 | 2.0 | 0.00 | 0.00 | 0.00 | 27 | 1010.3 |
| 20260903123036 | 58 | 280 | 1.0 | 3.0 | 0.00 | 0.00 | 0.00 | 24 | 1010.4 |
| 20260903121528 | 59 | 240 | 2.0 | 5.0 | 0.00 | 0.00 | 0.00 | 24 | 1010.4 |
| 20260903120022 | 58 | 253 | 2.0 | 4.0 | 0.00 | 0.00 | 0.00 | 25 | 1010.4 |
| 20260903114614 | 58 | 190 | 1.0 | 4.0 | 0.00 | 0.00 | 0.00 | 27 | 1010.5 |
| 20260903113106 | 58 | 257 | 2.0 | 5.0 | 0.00 | 0.00 | 0.00 | 27 | 1010.6 |
| 20260903111535 | 59 | 263 | 1.0 | 4.0 | 0.00 | 0.00 | 0.00 | 25 | 1010.7 |
| 20260903110031 | 58 | 263 | 2.0 | 5.0 | 0.00 | 0.00 | 0.00 | 25 | 1010.9 |
| 20260903104609 | 57 | 287 | 1.0 | 3.0 | 0.00 | 0.00 | 0.00 | 30 | 1011.0 |
| 20260903103005 | 57 | 278 | 1.0 | 3.0 | 0.00 | 0.00 | 0.00 | 32 | 1011.2 |
| 20260903101545 | 57 | 264 | 1.0 | 3.0 | 0.00 | 0.00 | 0.00 | 34 | 1011.3 |
| 20260903100039 | 57 | 290 | 1.0 | 6.0 | 0.00 | 0.00 | 0.00 | 34 | 1011.5 |
| 20260903094517 | 57 | 295 | 1.0 | 4.0 | 0.00 | 0.00 | 0.00 | 34 | 1011.8 |
| 20260903093033 | 58 | 258 | 1.0 | 3.0 | 0.00 | 0.00 | 0.00 | 28 | 1012.0 |
| 20260903091550 | 58 | 215 | 1.0 | 3.0 | 0.00 | 0.00 | 0.00 | 20 | 1012.1 |
| 20260903090047 | 58 | 246 | 1.0 | 2.0 | 0.00 | 0.00 | 0.00 | 13 | 1012.3 |
| 20260903084531 | 58 | 285 | 1.0 | 4.0 | 0.00 | 0.00 | 0.00 | 10 | 1012.5 |
| 20260903083020 | 58 | 253 | 1.0 | 3.0 | 0.00 | 0.00 | 0.00 | 7 | 1012.6 |
| 20260903081559 | 57 | 284 | 1.0 | 3.0 | 0.00 | 0.00 | 0.00 | 5 | 1012.6 |
| 20260903080054 | 57 | 289 | 1.0 | 3.0 | 0.00 | 0.00 | 0.00 | 5 | 1012.7 |
| 20260903074535 | 57 | 287 | 0.0 | 2.0 | 0.00 | 0.00 | 0.00 | 3 | 1012.7 |
| 20260903073027 | 58 | 288 | 1.0 | 3.0 | 0.00 | 0.00 | 0.00 | 100 | 1012.7 |
| 20260903071515 | 58 | 283 | 1.0 | 3.0 | 0.00 | 0.00 | 0.00 | 100 | 1012.5 |
| 20260903070002 | 58 | 288 | 1.0 | 4.0 | 0.00 | 0.00 | 0.00 | 1 | 1012.7 |
| 20260903064540 | 58 | 283 | 1.0 | 3.0 | 0.00 | 0.00 | 0.00 | 2 | 1012.8 |
| 20260903063036 | 57 | 169 | 1.0 | 5.0 | 0.00 | 0.00 | 0.00 | 6 | 1012.7 |
| 20260903061521 | 58 | 262 | 1.0 | 2.0 | 0.00 | 0.00 | 0.00 | 8 | 1012.7 |
| 20260903060016 | 58 | 255 | 1.0 | 2.0 | 0.00 | 0.00 | 0.00 | 8 | 1012.8 |
| 20260903054519 | 58 | 248 | 1.0 | 3.0 | 0.00 | 0.00 | 0.00 | 7 | 1012.8 |
| 20260903053007 | 58 | 278 | 1.0 | 2.0 | 0.00 | 0.00 | 0.00 | 9 | 1012.9 |
| 20260903051503 | 58 | 290 | 1.0 | 3.0 | 0.00 | 0.00 | 0.00 | 10 | 1012.9 |
| 20260903050100 | 59 | 285 | 1.0 | 2.0 | 0.00 | 0.00 | 0.00 | 10 | 1013.0 |
| 20260903044600 | 59 | 290 | 1.0 | 2.0 | 0.00 | 0.00 | 0.00 | 10 | 1012.9 |
| 20260903043049 | 59 | 287 | 0.0 | 1.0 | 0.00 | 0.00 | 0.00 | 12 | 1012.7 |
| 20260903041528 | 59 | 293 | 1.0 | 2.0 | 0.00 | 0.00 | 0.00 | 10 | 1012.6 |
| 20260903040023 | 60 | 287 | 0.0 | 2.0 | 0.00 | 0.00 | 0.00 | 9 | 1012.5 |
| 20260903034503 | 60 | 293 | 1.0 | 2.0 | 0.00 | 0.00 | 0.00 | 8 | 1012.3 |
| 20260903033058 | 61 | 293 | 1.0 | 2.0 | 0.00 | 0.00 | 0.00 | 7 | 1012.2 |
| 20260903031537 | 60 | 290 | 1.0 | 2.0 | 0.00 | 0.00 | 0.00 | 8 | 1012.1 |
| 20260903030034 | 60 | 290 | 1.0 | 2.0 | 0.00 | 0.00 | 0.00 | 11 | 1012.0 |
| 20260903024517 | 59 | 200 | 0.0 | 0.0 | 0.00 | 0.00 | 0.00 | 17 | 1011.9 |
| 20260903023016 | 59 | 200 | 0.0 | 0.0 | 0.00 | 0.00 | 0.00 | 18 | 1011.6 |
| 20260903021558 | 59 | 200 | 0.0 | 0.0 | 0.00 | 0.00 | 0.00 | 21 | 1011.6 |
| 20260903020100 | 60 | 200 | 0.0 | 1.0 | 0.00 | 0.00 | 0.00 | 27 | 1011.4 |
| 20260903014604 | 60 | 207 | 0.0 | 2.0 | 0.00 | 0.00 | 0.00 | 28 | 1011.4 |
| 20260903013046 | 60 | 215 | 2.0 | 4.0 | 0.00 | 0.00 | 0.00 | 37 | 1011.4 |
| 20260903011545 | 61 | 203 | 1.0 | 4.0 | 0.00 | 0.00 | 0.00 | 58 | 1011.4 |
| 20260903010045 | 62 | 197 | 1.0 | 5.0 | 0.00 | 0.00 | 0.00 | 60 | 1011.4 |
| 20260903004546 | 63 | 204 | 2.0 | 4.0 | 0.00 | 0.00 | 0.00 | 56 | 1011.4 |
| 20260903003042 | 64 | 198 | 2.0 | 6.0 | 0.00 | 0.00 | 0.00 | 49 | 1011.5 |
| 20260903001540 | 64 | 190 | 2.0 | 6.0 | 0.00 | 0.00 | 0.00 | 51 | 1011.6 |
| 20260903000039 | 65 | 190 | 3.0 | 7.0 | 0.00 | 0.00 | 0.00 | 48 | 1011.7 |
| 20260902234520 | 65 | 231 | 2.0 | 7.0 | 0.00 | 0.00 | 0.00 | 45 | 1011.8 |
| 20260902233019 | 65 | 166 | 2.0 | 6.0 | 0.00 | 0.00 | 0.00 | 48 | 1011.9 |
| 20260902231600 | 65 | 181 | 3.0 | 9.0 | 0.00 | 0.00 | 0.00 | 49 | 1012.0 |
| 20260902230108 | 65 | 221 | 3.0 | 10.0 | 0.00 | 0.00 | 0.00 | 48 | 1012.2 |
| 20260902224545 | 66 | 195 | 2.0 | 8.0 | 0.00 | 0.00 | 0.00 | 47 | 1012.2 |